カタログに戻る

ATLAS 2 CENTAUR R/B

運用中HEO
NORAD 23968·ROCKET BODY·🇺🇸 United States

打ち上げ Jul 25, 1996 から Cape Canaveral Space Force Station

Loading…

次のパス (今後24時間)

TLE

最新Source: Space-Track

元期: Sep 14, 2026, 08:01 UTC

1 23968U 96042B   26257.33433569  .00001442  00000-0  82079-3 0  9997
2 23968  26.6891 135.4812 6323350 232.5818  51.5600  3.52129382360895

AllMySatでATLAS 2 CENTAUR R/Bをリアルタイム追跡

Download on the App Store